Weather Roundup
Issued by NWS Chicago, IL

Home | Current Version | Previous Version | Text Only | Print | Product List | Glossary Off
Versions: 1 2 3 4 5 6 7 8 9 10 11 12 13 14 15 16 17 18 19 20 21 22 23 24 25 26 27 28 29 30 31 32 33 34 35 36 37 38 39 40 41 42 43 44 45 46 47 48 49 50

000
NZUS59 KLOT 200810
HRRLOT

CHICAGO AREA WEATHER ROUNDUP
NATIONAL WEATHER SERVICE CHICAGO/ROMEOVILLE IL
300 AM CDT MON OCT 20 2014

NOTE: "FAIR" INDICATES FEW OR NO CLOUDS BELOW 12,000 FEET WITH NO
SIGNIFICANT WEATHER AND/OR OBSTRUCTIONS TO VISIBILITY.

* THESE STATIONS ARE NOT UNDER NWS QUALITY CONTROL. THEY ALSO MAY NOT
  REPORT WEATHER SUCH AS PRECIPITATION OR FOG.

ILZ005-006-012>014-019>023-200900-
NORTHEAST ILLINOIS

CITY           SKY/WX    TMP DP  RH WIND       PRES   REMARKS
OHARE          PTCLDY    50  43  77 SW10      29.84F
MIDWAY         CLOUDY    51  45  79 SW10      29.85F
AURORA         PTCLDY    48  43  82 S8        29.85F
LANSING*       CLOUDY    49  44  82 SW9       29.88F
JOLIET*        MOCLDY    48  44  84 S6        29.87F
WAUKEGAN       PTCLDY    50  43  77 SW10      29.81F
DUPAGE AIRPORT PTCLDY    47  43  86 S8        29.84F
WHEELING       PTCLDY    52  44  74 S8        29.85F
KANKAKEE*      MOCLDY    47  44  89 S8        29.90F
MORRIS*        PTCLDY    49  46  88 SW7       29.86F
LEWIS AIRPORT* MOCLDY    47  44  90 S5        29.87F
NORTHERLY IS     N/A     51  43  74 SW8         N/A
$$

WIZ051-052-058>065-066-070>072-200900-
SOUTHEAST WISCONSIN

CITY           SKY/WX    TMP DP  RH WIND       PRES   REMARKS
MILWAUKEE      PTCLDY    50  42  74 SW8       29.80R
KENOSHA*       PTCLDY    50  43  77 SW13      29.81F
RACINE*        MOCLDY    52  42  69 W9G21     29.81F
BURLINGTON     PTCLDY    46  42  85 CALM      29.81S
WAUKESHA       PTCLDY    46  41  81 SW3       29.81F
WEST BEND      PTCLDY    50  41  71 SW6       29.78S
$$

INZ001>003-010>013-019-020-200900-
NORTHWEST INDIANA

CITY           SKY/WX    TMP DP  RH WIND       PRES   REMARKS
GARY*          CLOUDY    53  45  73 S7        29.87F
MICHIGAN CITY* NOT AVBL
RENSSELAER*    NOT AVBL
VALPARAISO     CLOUDY    48  43  82 S9        29.89F
$$

LMZ740>746-200900-
SOUTHERN LAKE MICHIGAN

STATION/POSITION TIME  SKY/WX   TEMP WIND        PRES    VSBY
                                AIR  DIR/SP/G
                 (UTC)          (F)  (DEG/KT/KT) (MB)    (MI)
HARRISON CRIB    0800            52  210/ 26/ 31   N/A
BURNHAM HARBOR   0800            51  200/  3/ 11   N/A
CALUMET HARBOR   0800            51  200/ 12/ 17 1009.8F
BURNS HARBOR     NOT AVBL
MICHIGAN CITY    0800            51  170/ 14/ 19   N/A
$$

ABBREVIATIONS USED IN REMARKS
   TC - TEMPERATURE IN CELSIUS
  WCI - WIND CHILL INDEX
   HX - HEAT INDEX
  VSB - VISIBILITY
$$


USA.gov is the U.S. government's official web portal to all federal, state and local government web resources and services.